Hauptseite
METAR-TAF:

METAR-TAF

Flughäfen :

Prague, Tschechien

Breite: 50-12-59N, Länge: 014-23-42E, Höhe: 280 m

Beobachtung

Neuester Wetterbericht von vor 29 Minuten, um 12:00 UTC
Wind 12 kt aus Nordwest, Böen bis zu 22 kt
Temperatur 26°C
Luftfeuchtigkeit 39%
Luftdruck 1014 hPa
Sichtweite 10 km oder mehr
Aufgelockert bewölkt in der Höhe von 4800 ft

METAR: LKVO 181200Z 32012G22KT 9999 SCT048 26/11 Q1014

Zeit: 14:29 (12:29 UTC)


TAF: fehlend

Wetterbeobachtungen und Prognosen von mehr als 4000 Flughäfen (METAR und TAF Bericht).

Die verfügbaren Stationen werden durch gelbe und rote Markierungen auf der Karte dargestellt.

Führen Sie die Maus auf sie, um den Namen der Station zu sehen.

Darauf klicken, um die Beobachtung von Wetterbeobachtungen und Prognosen zu sehen.

Um die Karte zu ändern : klicken Sie auf den grünen Tasten mit einem schwarzen Kreuz Zum Vergrößern, auf den grünen Button mit einem Gedankenstrich zu verkleinern, oder auf die grünen Pfeile für benachbarte Karten.


METAR-TAF: